Tracking 20083 objects as of 11-Dec-2019
HD Live streaming from Space Station
objects crossing your sky now

STRV 1A

Track STRV 1A now!
10-day predictions
STRV 1A is classified as:


NORAD ID: 23125
Int'l Code: 1994-034B
Perigee: 246.8 km
Apogee: 25,881.7 km
Inclination: 7.4 °
Period: 449.4 minutes
Semi major axis: 19435 km
RCS: 0.2699 m2 (medium)
Launch date: June 17, 1994
Source: United Kingdom (UK)
Launch site: FRENCH GUIANA (FRGUI)
aabbcc
Your satellite tracking list
Your tracking list is empty




NASA's NSSDC Master Catalog

Two Line Element Set (TLE):
1 23125U 94034B   19337.59403234  .00001842  00000-0  27894-3 0  9994
2 23125   7.3604   0.0904 6594937  42.0135 353.1229  3.20418207255336
Source of the keplerian elements: AFSPC